Location: Casco Millpond
(44.5581°N, 87.6111°W)
Time: 20:38:52
(UTC+00:00)

GEOS 3 Rocket - Pass Details

Date: 16 January 2026
Orbit: 768 x 845 km, 115.0° (Epoch: 10 February)

Event Time Altitude Azimuth Distance (km) Brightness Sun altitude
Rises 12:26:12 0° 161° (SSE) 3,290 7.4 -10.1°
Reaches altitude 10° 12:28:35 10° 168° (SSE) 2,376 6.5 -9.7°
Maximum altitude 12:33:28 43° 239° (WSW) 1,141 4.1 -8.8°
Drops below altitude 10° 12:38:29 10° 310° (NW) 2,436 5.5 -8.0°
Enters shadow 12:39:02 - 312° (NW) 2,640 5.7 -7.9°
